星链-35993(STARLINK-35993)

导读

STARLINK-35993是美国SpaceX公司星链(Starlink)星座的卫星,于2025年11月22日发射升空,运行在近地轨道,属于星链星座组网的组成部分。星链星座旨在为全球提供高速低延迟卫星互联网接入服务,该卫星具备激光星间链路能力,工作在Ku/Ka频段,支持包括常规宽带服务,助力星链覆盖范围扩展与服务能力提升。

基本信息
目录编号:
66607
目录名称:
STARLINK-35993
国际标识:
2025-270V
轨道中心:
EARTH
卫星名称:
星链-35993
卫星全名:
星链-35993(STARLINK-35993)
卫星状态:
在轨 (已飞行286 天)
发射日期:
2025-11-22 UTC
国别 :
美国 (US)
星等 :
--
轨道信息
数据来源 国际轨道数据 AOE轨道数据
星历时间 2026-09-04T09:22:56+0800
8小时前
查看轨道信息
2026-08-31T23:00:00+0800
3天前
查看轨道信息
半长轴 6861.152km 6861.151km
偏心率 0.0001733 0.0001298
轨道倾角 43.003° 43.003°
近地点辐角 282.326° 242.816°
升交点赤经 128.964° 148.353°
平近点角 77.740° 298.278°
近地点 481.825km 482.123km
远地点 484.205km 483.905km
周期 94.266分钟 94.266分钟
每日圈数 15.275917 15.27592
详细信息
固有亮度:
5
最大亮度:
2.5
卫星平台:
Starlink V1.0
覆盖范围:
全球
运营商:
太空探索技术公司
运营商所在国:
美国
制造商(研发单位):
太空探索技术公司
制造商所在国:
美国
使用方式:
暂无
卫星简介
Starlink 计划是 SpaceX 推出的全球卫星互联网项目,通过发射低轨道卫星,为全球尤其是偏远地区提供高速、低延迟的互联网服务。自 2019 年起,Starlink 已部署数千颗卫星,旨在缩小全球数字鸿沟,推动互联网普及。该项目还为军事、航空等行业提供通信支持,带来广泛经济效益。
2D轨道图
3D轨道图
轨道高度分析图
轨道倾角分析图
轨道综合分析图
查看轨道综合分析图